Theta_e
293 294 295 295 295 296 297 297 299 303 304 304 305 305 306 306 305 304 305 305 304 303 302 301 299 298 297 296 294 294 294 294 294 294 294 294 294 294 294 294 295 295 295 296 295 295 294 294 294 293 293 293 292 292 292 293 294 293 291 290 288 288 288 289 289 293 297 294 294 293 293 293 295 295 294 293 291 290 288 288 287 288 288 289 288
293 293 294 294 294 295 296 297 298 300 301 303 304 305 305 304 303 303 303 303 304 303 301 300 300 298 295 293 293 293 293 292 291 291 292 292 291 291 292 292 292 292 292 292 292 291 290 290 290 290 290 290 290 290 290 291 290 291 291 289 288 287 286 287 289 289 290 290 290 290 289 290 290 290 291 291 291 290 289 287 287 286 287 288 288
292 293 293 294 294 295 295 296 296 298 300 301 302 303 302 302 301 301 300 300 300 300 299 297 297 296 294 292 292 291 291 290 289 289 289 289 289 289 290 290 290 290 290 290 290 289 288 288 288 288 288 289 289 288 288 288 288 288 289 289 286 287 287 288 287 288 286 288 290 290 289 288 290 286 286 287 290 289 287 287 287 286 286 287 287
291 292 292 293 294 294 294 295 295 297 298 299 301 300 300 299 299 298 297 296 297 297 296 295 295 294 294 292 291 290 288 289 288 288 288 288 287 288 288 288 289 288 288 288 288 288 288 287 287 287 287 287 288 287 287 286 287 287 287 287 287 285 284 285 286 286 287 286 287 288 287 283 278 279 283 284 285 286 287 287 287 286 286 286 286
291 291 292 293 293 294 294 294 295 296 296 297 298 299 299 298 297 297 296 295 295 295 295 294 293 292 291 291 290 289 288 287 286 285 286 287 286 286 286 287 288 288 288 288 288 287 287 287 287 286 286 286 287 286 286 286 285 285 286 286 285 283 283 283 285 286 285 287 286 281 279 280 280 280 281 280 283 284 283 286 287 286 286 286 286
292 292 292 293 293 293 293 293 294 294 294 295 296 298 297 296 295 295 295 294 294 294 294 294 292 291 289 288 287 286 285 285 284 284 284 284 285 285 286 286 286 286 286 287 287 286 286 286 285 285 285 285 285 285 285 285 285 285 285 285 285 284 283 282 282 285 285 286 285 285 284 279 280 282 279 277 282 283 283 284 283 284 284 285 285
291 292 292 292 293 293 293 293 293 293 293 293 295 296 296 295 295 296 295 294 294 294 293 293 292 291 290 288 287 286 284 284 284 284 284 284 285 284 285 285 285 285 285 285 285 285 285 285 285 285 284 284 285 284 284 284 284 285 285 285 284 286 284 282 282 282 282 284 285 284 284 285 286 282 281 279 276 279 281 282 282 283 282 283 284
291 291 292 293 293 293 293 293 293 293 292 293 295 295 295 295 295 296 295 294 294 294 293 293 292 290 288 287 286 285 284 284 284 284 284 284 284 284 284 284 284 284 284 284 284 284 284 284 284 284 284 284 285 284 283 283 284 285 284 284 284 284 284 283 281 282 280 282 284 283 282 282 282 282 281 280 279 277 278 279 279 282 282 282 282
291 291 292 292 292 293 293 292 292 291 291 293 294 294 295 295 295 295 294 294 294 293 292 291 290 289 288 286 285 285 285 284 284 285 284 284 283 283 283 283 283 284 284 284 283 284 284 283 283 284 284 283 284 283 283 283 283 283 283 283 283 283 283 283 282 281 281 281 280 280 280 280 279 280 279 279 278 276 275 276 277 277 279 281 282
291 291 292 292 292 292 292 291 290 290 291 292 292 293 294 294 293 293 292 292 292 291 290 289 289 289 287 286 285 284 284 284 283 283 282 282 282 282 282 282 283 283 283 283 283 283 283 283 283 283 283 283 283 282 282 282 282 282 282 282 282 281 282 283 281 280 281 280 280 280 279 278 278 277 277 277 276 278 277 277 277 277 276 278 281
290 290 291 291 291 291 290 290 290 289 289 291 291 292 292 293 292 291 290 290 290 290 289 289 288 288 286 285 285 284 284 283 282 282 282 281 281 281 281 282 282 282 283 283 283 283 283 283 283 283 283 283 283 282 282 282 282 281 281 281 281 281 280 280 281 280 280 279 279 278 279 280 280 278 277 277 278 276 275 276 277 277 277 277 276
290 290 289 290 289 289 289 289 288 289 289 290 289 290 291 291 291 289 288 289 289 289 289 288 288 287 286 285 285 285 284 283 282 282 281 281 281 281 281 282 281 282 282 282 282 282 282 282 282 282 282 282 282 282 282 282 282 281 281 281 280 280 280 280 279 279 279 279 278 278 278 279 279 278 279 279 278 277 277 276 276 276 276 276 279
289 289 289 289 289 288 288 288 287 287 289 289 289 289 289 289 289 289 288 288 289 289 288 287 287 286 286 285 285 285 284 283 283 282 281 281 281 281 281 281 281 281 280 281 281 281 282 281 282 282 282 282 282 282 281 281 281 280 280 279 279 279 279 279 279 278 278 279 278 277 277 278 278 278 279 278 278 278 277 275 276 277 275 276 277
289 289 289 288 288 288 288 288 287 287 288 288 288 288 288 288 288 288 288 288 288 288 287 287 286 286 286 286 286 285 284 283 283 282 282 282 282 281 281 281 281 281 281 281 281 282 282 282 282 281 281 281 281 281 280 280 279 279 278 279 278 278 278 278 278 277 277 277 277 277 277 277 277 278 277 278 277 277 276 275 275 275 275 275 276
288 289 289 288 288 288 288 287 287 287 288 288 288 288 288 287 288 288 287 287 287 287 287 286 286 286 286 286 285 285 284 283 283 283 282 282 281 281 281 281 281 281 281 281 282 281 281 281 280 280 280 280 280 280 280 279 279 279 279 279 279 278 278 278 278 278 279 277 277 277 278 278 277 277 277 278 277 278 277 276 276 274 274 274 273
288 288 288 288 288 287 287 287 287 287 287 287 288 288 287 287 287 287 287 287 287 287 287 287 286 286 286 285 285 285 284 283 283 283 282 282 282 282 281 281 281 281 281 281 281 281 280 280 279 279 279 279 280 280 279 279 279 279 279 279 278 280 279 278 277 277 277 277 278 277 277 276 277 277 278 277 277 278 278 277 276 275 274 272 274
287 288 288 287 287 287 287 287 287 287 287 287 288 287 287 287 286 286 286 286 287 287 286 286 286 286 286 285 285 284 284 283 283 283 282 282 282 281 281 281 281 281 281 281 280 279 279 279 279 279 279 279 279 279 280 279 279 279 278 277 277 277 277 277 277 277 276 276 276 277 277 277 276 277 276 278 278 277 277 277 277 276 276 273 271
288 288 288 287 287 287 287 287 287 287 287 287 287 287 287 287 286 286 286 286 286 286 286 286 286 285 285 285 285 284 284 283 283 283 282 282 281 281 281 281 281 281 282 281 280 279 279 280 279 279 279 279 279 279 279 278 278 278 277 277 276 276 276 276 277 276 277 276 277 276 275 277 276 276 277 276 276 276 276 277 276 276 276 274 273
287 287 287 287 287 288 287 287 287 287 287 287 287 286 286 286 286 286 286 286 285 286 285 285 285 286 285 284 283 283 283 283 282 282 282 281 280 280 280 280 280 280 280 279 279 279 279 278 279 279 279 279 278 278 277 277 277 277 277 277 276 275 276 275 276 276 277 276 276 276 275 275 276 276 275 275 276 276 276 276 275 276 276 275 274
288 288 288 288 288 288 287 287 286 286 286 286 286 286 285 285 285 285 284 284 284 284 284 284 283 284 283 282 282 283 283 282 282 282 281 281 280 280 280 280 280 280 279 279 279 278 278 278 278 278 278 277 277 276 277 277 276 276 276 276 275 275 274 274 275 275 277 276 274 275 275 275 275 275 275 275 275 275 275 276 275 276 275 275 275
288 288 288 288 288 288 287 287 286 285 286 286 286 286 285 285 284 284 284 283 283 283 283 283 283 282 282 282 282 282 281 281 281 281 280 280 280 280 280 280 279 279 279 278 279 279 278 278 278 278 277 277 276 276 276 276 276 275 276 275 274 274 273 273 274 274 274 274 274 274 274 274 275 275 275 275 275 274 274 275 275 275 275 274 274
289 289 288 288 287 287 286 285 285 284 284 285 285 285 284 284 284 284 283 283 283 283 283 283 282 282 282 281 281 281 281 281 280 280 280 279 279 279 279 279 279 279 279 279 278 278 278 277 277 277 277 276 276 276 275 275 275 275 275 277 274 273 272 273 273 273 273 275 273 273 273 273 274 274 274 273 274 273 273 273 273 274 273 274 274
289 289 288 288 288 287 286 285 284 284 284 284 284 285 284 283 283 283 283 283 283 283 283 282 282 281 281 281 281 281 281 280 280 279 279 279 279 279 279 279 279 279 278 278 278 278 278 278 277 277 277 276 275 275 275 274 274 274 274 273 274 272 272 272 273 273 273 273 273 273 273 273 275 273 273 273 273 273 273 273 272 273 272 272 273
288 288 288 287 287 286 284 284 284 284 283 284 284 284 284 283 283 283 283 282 282 282 282 282 281 281 280 280 280 280 280 280 279 279 279 279 279 279 279 279 279 278 278 278 278 278 278 278 277 276 275 275 275 274 274 274 274 273 273 273 272 272 272 272 272 272 272 273 273 273 272 272 272 272 272 272 272 272 272 272 272 272 272 272 272
287 287 287 286 285 285 285 285 284 284 284 284 284 284 284 283 283 283 282 282 282 282 282 281 281 280 280 280 280 280 280 279 279 279 279 279 279 279 278 278 278 278 278 278 278 278 277 277 277 275 275 274 274 274 274 274 274 273 273 273 272 272 272 272 272 272 276 273 273 273 272 272 272 271 271 271 272 271 271 271 271 271 272 272 273
288 287 286 286 286 286 285 284 284 284 284 284 284 284 283 283 282 283 282 281 281 281 281 281 280 280 280 279 280 279 279 279 279 279 279 279 279 278 278 278 278 278 278 279 278 277 277 277 276 275 274 274 274 274 274 273 273 273 272 272 272 272 272 272 272 273 273 273 273 273 273 272 272 271 271 271 271 271 271 270 270 271 271 271 271
288 288 288 287 286 285 285 284 284 284 284 284 284 283 283 283 282 282 283 282 282 281 281 281 280 280 279 279 279 279 279 279 279 279 279 278 278 278 278 278 278 278 278 278 277 277 277 276 276 275 274 274 274 274 273 273 273 273 272 272 271 271 272 272 273 273 273 273 273 273 272 273 272 271 271 270 270 270 269 269 270 270 271 271 271
287 287 287 286 286 285 285 284 284 284 284 283 283 284 284 284 283 283 283 283 282 282 281 280 280 279 279 279 279 279 279 279 278 278 278 278 278 278 278 278 278 278 278 277 277 277 276 276 275 275 275 275 274 273 273 273 273 272 272 271 271 271 272 273 273 273 273 273 273 273 273 272 272 272 272 271 271 271 271 270 271 271 271 271 271
287 288 287 287 286 286 285 285 284 284 284 284 284 284 284 284 284 283 283 283 282 281 281 280 279 279 279 279 279 278 278 278 278 278 278 278 278 278 278 279 279 278 278 277 277 276 276 276 275 275 275 275 274 274 274 273 272 272 272 272 272 272 272 272 273 272 273 273 272 272 273 272 273 277 278 278 278 278 272 269 270 271 269 271 270
288 288 289 289 288 287 287 286 285 284 284 284 284 284 284 284 283 283 282 282 282 281 280 279 279 279 279 278 278 278 278 278 278 278 278 278 278 278 278 278 278 278 277 277 276 276 276 276 275 275 275 274 273 273 276 279 278 273 273 273 273 272 271 272 272 271 271 272 272 272 273 277 277 278 278 279 279 279 279 277 273 272 269 268 268
289 290 290 289 289 288 287 286 285 285 284 284 284 284 284 284 283 283 283 282 281 280 280 279 279 279 278 278 278 278 277 278 278 278 278 278 278 278 278 278 277 277 277 276 276 276 276 276 275 275 273 273 272 273 278 281 280 279 273 272 272 271 271 271 271 271 270 271 271 272 271 274 276 277 275 277 278 278 278 278 278 278 277 273 268
290 290 290 289 288 288 287 286 286 286 285 285 284 284 284 283 283 283 282 281 281 280 280 280 279 279 278 278 278 277 277 278 278 278 278 278 278 278 278 278 277 277 276 276 275 275 275 275 274 273 272 272 272 277 280 281 282 281 279 273 271 270 270 271 271 271 271 271 271 271 271 272 272 272 272 272 274 276 277 277 277 277 277 277 277
291 290 290 290 289 289 288 287 287 286 286 285 285 284 283 284 283 283 282 280 281 280 280 280 279 278 278 278 278 278 277 278 278 278 278 278 278 278 277 277 276 276 276 275 275 275 274 273 272 271 271 271 271 278 280 282 282 282 282 277 271 272 271 270 271 271 271 271 270 271 270 272 271 275 274 270 269 269 274 275 276 276 276 275 275
291 291 290 290 290 289 289 288 288 287 287 286 285 284 284 284 283 283 282 281 281 280 280 279 278 278 278 278 278 278 278 278 278 278 278 278 277 278 278 277 277 276 276 275 275 274 273 271 271 271 271 270 270 277 281 282 282 282 281 280 271 272 271 272 273 272 271 271 271 270 270 270 270 269 269 269 269 269 269 269 269 269 269 272 275
290 289 290 289 290 289 289 288 288 287 286 285 284 284 284 283 283 282 282 281 281 280 279 279 278 278 278 278 278 278 278 278 278 278 277 277 277 277 277 277 276 276 275 274 273 272 271 270 270 269 269 270 270 277 281 281 282 282 281 280 272 273 273 273 274 273 272 271 271 271 270 269 269 269 269 271 270 270 268 268 267 268 270 272 273
290 289 289 289 289 289 289 289 288 287 286 285 285 284 284 283 283 282 281 281 281 280 279 279 279 278 278 278 278 278 278 278 278 277 277 277 277 277 276 276 275 275 274 272 269 268 270 269 269 268 268 269 269 278 280 281 281 281 281 274 272 272 272 272 272 272 272 272 271 270 269 269 268 269 272 275 275 273 270 267 268 270 272 273 273
290 290 290 290 289 289 288 288 287 287 286 285 285 284 283 282 281 282 281 281 280 280 279 279 279 279 278 279 279 278 278 277 277 277 276 277 277 275 276 275 274 274 272 271 271 270 270 270 269 268 268 269 267 275 279 280 281 281 280 271 271 271 271 271 270 270 270 270 270 269 269 269 269 268 272 275 276 276 273 272 272 272 273 273 273
287 287 287 288 288 287 287 288 287 286 286 285 284 284 283 282 281 281 281 280 280 280 280 279 279 279 279 279 279 279 278 278 277 277 277 277 277 276 275 273 273 272 272 271 270 269 268 269 268 268 269 268 267 272 279 280 280 281 278 271 271 271 270 270 269 269 269 269 270 273 272 270 269 269 273 275 276 275 273 273 273 273 273 272 273
288 288 287 287 287 286 286 286 286 285 285 284 284 283 283 282 282 281 280 280 280 280 280 279 279 279 279 279 279 278 278 278 277 278 277 277 276 275 274 272 273 273 272 271 269 269 267 266 267 268 271 269 267 270 277 279 280 280 278 270 270 269 269 268 267 267 269 269 269 271 273 273 272 272 276 276 277 276 275 275 274 273 272 272 274
287 287 287 286 286 285 285 285 285 285 284 284 284 284 283 282 281 280 280 280 280 280 280 280 280 279 279 278 279 279 278 278 278 278 277 277 276 274 273 273 272 272 271 269 269 269 268 267 266 266 267 269 266 265 270 278 279 280 280 272 270 269 268 268 267 267 266 266 268 268 271 275 276 277 277 278 278 278 276 275 275 273 273 272 274
286 285 286 286 286 286 286 285 285 284 284 284 284 284 283 282 281 280 280 281 281 281 280 279 278 278 278 278 278 278 278 278 278 278 277 275 275 275 273 272 271 270 268 267 267 267 267 267 265 266 265 266 266 265 267 276 278 279 280 277 270 270 269 268 266 266 266 266 267 268 268 272 275 276 277 277 278 278 278 276 276 274 273 274 276
285 285 285 285 284 283 283 282 282 283 284 284 284 284 283 281 280 281 282 282 280 279 278 277 277 278 277 277 277 278 278 278 277 276 275 275 274 274 273 272 270 269 269 269 267 266 266 266 265 265 265 265 266 269 265 272 277 278 279 280 273 271 270 267 266 266 267 267 268 268 268 271 274 276 276 277 278 278 278 277 273 276 278 277 274
284 283 283 284 283 282 282 282 281 281 283 283 284 283 281 281 281 282 281 278 278 278 277 277 277 277 276 277 277 276 277 277 276 276 276 275 272 272 270 270 269 268 269 268 267 266 266 266 264 264 264 264 264 265 272 268 273 277 279 280 280 275 276 271 267 267 267 267 268 268 270 273 275 276 277 277 278 278 278 275 276 276 276 276 272
283 283 282 283 282 282 281 280 280 280 281 283 283 282 280 280 282 280 277 275 276 276 276 276 276 276 275 275 275 276 276 276 276 275 275 274 271 271 270 269 269 269 269 268 267 266 265 266 266 266 264 264 263 263 268 272 270 275 278 279 280 280 278 273 271 269 269 269 269 270 271 274 276 276 276 277 277 278 276 275 276 275 275 272 265
282 282 282 282 282 281 280 279 278 279 279 280 281 281 279 280 279 277 276 276 275 274 276 275 275 275 275 275 273 274 274 274 274 275 274 274 271 269 270 267 268 268 268 269 268 266 266 266 266 266 266 265 263 263 263 267 273 274 276 278 279 280 280 279 274 272 272 271 273 275 275 276 276 276 276 277 277 274 274 274 274 274 272 263 261
281 280 280 280 280 280 279 278 277 276 278 278 278 279 279 278 274 276 272 274 273 274 274 276 274 274 274 272 272 270 270 271 272 273 275 274 273 270 271 268 267 268 268 268 268 266 266 266 266 266 266 266 264 263 263 263 268 272 274 276 278 279 279 279 278 275 276 276 276 276 277 277 276 276 275 272 269 270 272 273 273 271 261 260 258
281 280 279 279 279 279 278 278 277 275 276 276 275 276 276 273 273 274 273 272 272 273 273 270 270 270 268 268 272 272 269 266 266 267 269 271 271 270 270 268 268 268 268 267 268 267 266 265 265 266 266 265 263 263 263 263 264 265 268 271 273 275 277 278 276 276 277 276 276 276 276 276 276 277 276 275 273 271 265 263 262 261 259 258 258
279 279 279 279 280 279 278 276 278 276 275 274 274 273 271 268 269 271 271 271 272 272 272 269 267 266 266 265 267 269 267 265 265 265 268 267 267 268 269 270 268 268 268 268 268 267 267 267 266 266 263 262 263 262 263 263 264 264 266 267 268 269 270 272 274 274 274 274 273 274 275 272 269 267 266 262 260 259 260 261 259 258 258 259 263
278 277 278 280 278 277 277 277 275 273 271 270 270 270 269 270 267 266 269 271 270 268 266 265 264 265 265 264 264 263 264 263 262 261 261 262 265 265 267 266 265 263 264 265 265 266 266 263 263 264 264 264 263 264 264 268 267 269 266 265 265 267 268 269 272 274 272 270 269 268 267 267 266 266 265 263 261 259 258 257 256 255 255 256 255
274 275 274 274 275 275 274 273 272 270 271 270 268 268 268 268 264 264 267 269 268 267 265 265 265 265 263 264 263 263 262 263 263 263 263 262 266 271 268 265 264 270 273 274 273 267 264 263 265 266 267 267 267 267 271 272 273 273 274 273 272 271 272 270 271 274 274 270 268 267 267 267 267 266 265 264 262 259 258 257 256 261 259 256 256
275 275 272 273 272 272 272 272 271 270 270 269 267 265 265 265 266 266 266 267 267 268 266 265 264 265 266 265 263 263 263 263 263 262 261 262 262 264 272 274 273 272 273 274 275 276 276 275 269 266 269 274 274 274 274 274 275 275 275 275 276 276 275 275 275 272 271 271 269 268 267 267 266 266 264 264 262 259 258 257 257 256 255 257 259
Wind_Speed
6 8 6 6 6 6 5 5 6 6 7 7 8 8 8 9 9 9 8 8 6 7 7 7 8 8 8 7 9 6 7 7 7 6 7 6 7 7 7 7 8 8 7 8 9 9 8 8 9 8 7 9 9 8 6 7 5 5 5 7 9 11 11 9 7 3 8 7 7 7 8 6 7 7 6 6 6 5 6 6 6 7 6 6 6
7 6 6 6 5 6 5 5 6 9 6 7 8 8 7 7 7 6 4 4 5 6 5 5 5 6 8 7 8 6 6 7 7 6 6 6 7 7 7 7 8 8 7 8 9 9 9 8 8 7 7 8 8 7 8 8 8 7 4 8 6 10 8 8 9 3 5 4 7 4 6 6 5 7 7 5 5 5 5 6 6 7 7 5 6
6 6 6 7 6 6 5 5 5 6 7 7 7 8 7 7 6 7 6 6 5 6 6 7 7 6 9 6 8 8 5 5 7 5 5 7 7 7 7 7 8 8 7 8 9 8 9 9 8 7 7 6 9 10 9 9 7 7 7 6 6 5 7 7 10 7 3 1 1 5 2 2 2 6 4 5 5 4 4 6 6 7 7 5 5
13 12 11 8 8 6 5 6 6 6 6 6 7 8 7 7 6 8 7 5 6 6 7 7 9 9 10 10 7 9 8 6 8 6 6 8 9 7 7 7 8 8 8 8 8 8 9 9 7 8 8 7 9 10 10 9 9 8 8 7 5 9 7 8 7 8 6 2 2 1 1 2 2 2 3 3 2 4 6 6 5 6 7 6 6
13 11 10 10 10 9 8 6 6 7 7 7 7 7 6 8 8 8 8 7 6 8 10 10 11 10 10 10 10 11 7 6 8 7 6 6 7 8 7 6 7 8 7 7 8 9 8 8 9 8 9 7 8 10 9 8 7 6 7 8 7 6 7 5 8 8 10 6 3 3 3 4 0 2 3 3 4 3 4 5 5 8 8 8 6
16 17 15 12 10 8 6 7 7 6 7 6 6 6 7 8 8 7 7 7 8 8 10 10 10 11 10 10 9 9 7 7 8 8 6 7 7 4 7 6 6 7 7 8 8 8 9 9 8 9 9 8 9 8 7 8 8 9 6 6 8 6 7 7 6 6 7 9 8 4 2 2 0 2 3 2 6 1 4 5 4 7 7 7 7
5 6 9 11 10 9 8 8 7 8 6 5 5 6 7 8 8 9 8 7 7 8 7 9 9 9 9 8 8 9 10 5 4 4 7 6 6 7 6 6 6 9 8 8 8 9 9 9 9 9 9 8 7 9 9 8 7 6 6 8 6 5 7 8 7 4 4 7 7 6 8 5 2 2 1 1 4 5 4 3 4 7 6 6 6
12 12 12 10 11 13 13 9 8 8 5 4 6 6 9 9 9 9 8 8 7 7 7 7 9 7 9 9 8 8 8 10 8 6 5 6 8 7 7 7 7 7 8 8 8 8 8 9 8 9 10 8 9 9 8 6 7 7 7 7 7 7 7 8 6 6 6 3 4 7 5 5 5 7 4 1 1 3 6 6 2 8 8 6 4
13 13 14 14 14 12 10 9 6 6 5 6 6 6 7 8 9 9 9 8 7 7 7 4 8 9 10 9 10 7 9 8 7 6 7 6 10 7 8 7 7 7 7 8 7 8 8 8 8 9 9 8 8 8 7 8 8 8 8 9 8 7 6 4 7 6 6 4 4 5 4 4 4 3 4 3 1 0 5 1 5 4 5 7 7
8 10 11 10 9 8 6 6 6 7 5 5 5 6 7 8 9 9 8 7 7 6 6 6 8 10 10 10 13 10 9 8 7 8 7 6 9 8 7 7 6 7 7 7 8 7 8 8 9 9 8 7 8 8 8 8 8 8 7 7 7 8 5 7 7 5 6 5 5 3 5 4 5 5 4 5 2 0 1 5 4 5 6 5 7
9 9 8 8 7 7 7 9 7 5 4 5 5 6 7 8 9 9 7 7 7 8 8 8 9 10 10 11 13 14 11 11 10 8 7 7 9 7 7 7 6 7 6 6 7 7 8 7 8 8 7 7 8 8 7 8 7 7 6 8 9 8 6 7 6 5 5 6 5 6 4 4 1 1 1 2 1 1 3 5 4 4 4 7 4
9 9 9 9 8 7 8 9 8 8 6 6 5 6 7 8 9 9 6 7 7 8 10 9 9 10 9 10 12 12 13 11 12 12 10 10 9 9 7 7 6 6 6 7 6 6 7 7 7 7 8 8 8 7 7 7 6 6 7 7 7 6 6 7 5 6 5 5 4 4 3 2 3 3 1 1 1 2 1 5 6 4 4 4 6
11 10 10 10 11 12 11 10 8 9 9 8 7 7 7 8 9 10 8 7 8 8 10 9 9 10 10 10 10 10 9 10 10 11 9 10 9 10 9 8 7 7 6 7 5 6 7 8 7 8 7 7 7 7 6 6 7 7 7 6 6 6 6 6 7 5 4 5 3 2 2 3 2 0 2 2 1 0 1 3 3 2 4 6 4
11 11 11 11 11 11 11 11 10 9 9 9 8 8 7 8 9 10 9 7 7 8 9 10 10 10 10 9 10 9 9 9 9 10 9 8 8 10 9 9 8 8 8 7 6 6 6 6 7 7 6 6 7 7 7 6 6 7 6 7 6 4 5 6 5 4 4 3 2 4 3 3 3 1 2 4 2 3 3 3 5 3 3 6 3
9 10 11 12 12 12 12 11 10 10 10 10 8 8 9 9 10 11 10 8 8 9 9 10 10 10 9 8 9 7 9 8 8 7 9 9 7 8 7 7 8 7 8 6 5 7 6 6 6 7 6 6 6 7 6 6 6 6 6 6 5 4 5 6 5 4 4 3 3 2 2 3 3 2 3 3 2 1 0 1 3 8 6 2 4
9 10 10 10 11 10 10 10 10 10 11 9 9 9 10 10 9 10 11 10 9 10 9 10 10 9 8 9 9 8 7 7 7 6 6 7 8 9 8 7 7 7 6 7 5 6 7 7 6 6 6 6 6 6 6 6 5 6 5 5 5 3 4 5 4 4 2 1 0 1 3 3 2 2 2 3 3 1 1 1 2 2 3 7 5
10 10 10 10 9 9 9 10 9 10 10 11 11 10 11 11 11 10 9 8 9 9 10 9 10 10 9 9 9 8 9 10 10 9 8 7 7 7 8 7 6 6 7 6 7 5 6 7 7 7 6 6 6 5 6 6 5 5 5 5 4 2 3 4 4 3 2 2 2 1 0 1 2 1 2 3 3 3 3 1 0 0 0 2 4
10 9 9 10 10 10 9 9 10 11 11 10 10 8 8 9 10 11 10 12 10 10 10 10 11 10 9 9 9 9 9 8 9 10 8 8 7 7 6 7 7 6 7 6 6 6 5 6 7 6 6 6 6 5 5 5 5 5 5 4 4 4 4 3 3 3 2 2 1 1 1 1 0 1 1 2 2 2 2 3 1 1 0 1 2
10 11 11 11 12 13 12 11 10 9 9 9 8 8 8 7 8 9 10 10 10 8 7 7 8 8 8 9 10 8 7 7 7 8 8 9 9 8 8 7 7 6 7 7 7 6 6 6 6 6 5 5 4 4 4 5 5 6 4 5 4 4 5 4 2 2 1 2 1 1 0 1 0 0 1 2 2 3 3 2 2 2 3 0 2
12 12 13 13 13 13 12 12 12 12 11 10 10 8 9 8 9 8 7 7 8 8 8 9 7 7 7 6 6 6 7 8 9 10 9 9 8 9 8 8 8 6 6 7 7 7 7 7 6 6 5 4 4 4 4 6 6 6 5 6 4 4 4 4 2 1 1 2 2 1 0 0 1 0 1 1 1 2 1 2 2 1 2 1 0
12 12 12 12 11 11 10 9 9 7 7 8 9 9 8 7 8 9 11 10 9 8 8 8 7 7 9 9 9 8 8 7 8 7 9 8 7 7 7 7 7 7 7 8 7 7 7 7 7 6 5 5 4 5 4 5 6 5 5 4 4 4 4 3 2 1 1 2 2 1 1 1 0 0 0 1 1 1 1 2 1 1 1 1 1
12 11 10 10 9 9 7 7 7 9 9 11 9 9 9 9 9 9 9 9 10 9 9 8 7 8 9 9 8 7 8 8 8 8 8 8 8 8 8 7 8 7 7 8 8 6 6 6 6 6 6 5 4 5 5 5 6 5 4 3 5 4 4 2 3 1 0 1 1 1 1 1 0 0 0 1 0 1 1 1 1 1 1 2 2
11 11 10 9 9 10 10 11 12 12 11 11 10 10 10 10 10 9 11 10 9 9 8 8 8 9 9 8 8 8 8 9 10 8 9 9 8 8 7 9 8 7 5 6 7 7 7 7 6 6 6 5 5 5 5 6 5 5 5 4 4 4 3 3 2 1 1 1 1 0 1 1 0 1 1 1 0 1 1 0 1 1 2 2 2
6 6 6 8 9 9 10 11 12 12 12 13 11 10 10 10 10 10 12 11 10 9 9 9 8 8 8 8 8 8 9 9 10 9 10 8 9 8 7 8 7 7 8 5 6 7 7 7 7 6 5 5 5 5 5 5 6 5 5 4 4 3 2 2 2 2 1 1 1 1 2 1 1 1 2 1 1 0 1 1 2 2 1 3 3
8 10 10 10 10 13 14 13 13 12 11 11 12 12 11 11 10 11 10 10 9 8 10 9 9 10 9 9 9 9 10 10 10 9 10 9 9 9 7 8 8 7 6 7 6 6 7 7 8 7 7 6 6 6 6 5 4 4 5 4 3 3 3 2 2 2 3 2 1 2 2 1 1 2 2 2 2 2 2 2 2 2 2 2 2
12 12 12 16 16 13 12 12 11 12 13 13 12 11 11 10 11 10 11 10 10 8 9 10 9 11 10 10 10 10 11 11 10 10 11 10 9 9 8 7 7 8 7 7 8 7 7 8 7 7 6 6 5 5 6 6 5 4 4 3 3 3 3 2 2 2 2 2 2 2 2 1 1 2 4 3 2 3 2 2 2 2 2 2 3
17 17 14 10 11 17 16 14 12 11 11 12 12 12 11 11 11 10 10 11 10 10 10 11 10 11 10 11 11 11 10 10 10 10 9 9 9 9 9 9 8 8 9 9 7 8 7 7 7 7 7 7 6 5 5 5 5 4 4 4 3 3 3 2 2 3 2 2 2 1 1 1 2 2 3 4 3 3 2 3 3 3 3 3 3
6 8 13 17 15 11 12 13 12 12 11 10 10 11 13 13 14 11 11 11 10 11 11 11 11 11 11 12 11 10 9 9 9 9 9 9 9 8 8 7 8 9 9 9 10 9 8 6 7 7 6 6 6 5 5 5 5 5 4 4 4 3 3 2 1 1 1 1 1 1 1 2 2 3 3 4 3 4 3 4 4 3 3 3 4
13 15 13 13 14 14 14 14 14 12 13 13 12 11 10 9 9 11 11 12 11 12 12 12 11 12 12 11 9 8 7 8 9 9 9 9 9 8 8 8 8 8 7 8 8 8 9 8 6 6 7 6 6 6 6 6 6 5 5 5 4 3 3 2 1 1 1 1 1 1 2 2 3 6 8 7 6 6 4 4 4 3 4 4 4
15 15 16 16 17 16 16 14 13 16 15 14 13 13 13 13 12 12 12 11 11 12 13 12 12 12 10 10 10 8 9 9 9 10 10 9 9 9 9 9 9 8 8 7 7 7 8 9 9 7 6 6 6 5 6 10 8 6 5 5 4 3 2 2 2 2 2 1 1 2 3 6 8 8 8 9 9 10 10 6 3 3 3 4 4
16 15 15 14 13 12 12 14 15 16 17 16 14 13 11 11 11 12 12 12 11 12 12 12 13 11 10 10 10 10 9 11 10 9 8 9 10 8 8 8 8 8 9 8 8 9 8 8 9 9 8 6 6 5 11 12 12 12 6 5 5 3 3 2 3 3 3 3 3 3 3 4 5 5 4 8 10 10 10 10 11 11 8 5 4
14 14 13 13 13 13 14 17 17 16 16 14 13 12 12 14 12 12 11 10 11 12 12 12 11 10 10 11 10 10 10 10 9 9 9 9 8 9 9 8 8 8 8 7 8 9 8 8 7 7 7 7 6 8 13 12 12 12 9 6 4 4 3 3 3 3 3 3 3 3 3 2 2 3 4 4 5 7 9 10 11 11 10 10 9
16 15 16 15 16 18 19 18 15 15 15 15 13 12 14 13 13 11 9 11 12 11 11 11 10 10 10 10 10 11 11 10 9 9 9 9 10 9 9 9 10 8 7 8 10 9 8 7 7 8 7 6 6 11 13 13 13 12 12 9 5 5 5 4 3 3 3 3 3 4 3 3 2 6 4 2 2 3 6 10 11 11 9 9 10
13 15 16 16 14 12 12 14 14 13 11 9 11 13 10 9 10 10 12 12 12 11 11 11 9 10 10 10 11 10 10 10 9 9 9 10 10 11 10 8 7 7 9 8 7 8 7 8 8 8 7 6 6 10 14 14 13 12 12 9 5 6 4 4 4 4 4 4 4 4 3 4 3 2 3 3 3 4 5 4 5 4 4 6 10
13 11 10 11 12 11 10 10 11 12 11 11 10 10 10 10 11 13 12 12 12 12 11 11 11 10 10 10 11 10 11 10 10 9 10 10 11 9 9 9 9 10 11 11 10 9 8 7 7 6 6 7 6 11 13 13 13 13 12 8 5 4 4 4 6 5 5 5 5 5 3 4 3 3 4 4 4 5 5 5 5 5 6 7 7
12 12 11 11 13 15 15 14 9 11 11 12 12 11 12 12 11 12 11 12 12 12 12 11 11 11 12 12 12 11 10 9 10 9 10 11 10 11 11 9 8 7 5 4 4 5 7 8 7 6 6 7 6 13 14 13 13 13 13 5 5 5 5 4 5 5 4 5 4 4 4 4 4 4 7 12 10 6 5 5 6 7 7 8 7
8 10 12 9 8 9 9 9 10 11 11 12 10 11 11 10 11 10 11 11 11 12 13 12 12 12 12 12 12 12 11 10 9 10 11 11 11 10 9 7 8 8 8 8 9 9 8 8 8 7 8 7 5 10 14 14 14 14 9 5 5 5 5 5 6 5 5 4 4 4 4 5 5 5 9 12 13 11 5 7 8 9 8 8 8
4 3 4 7 7 8 9 11 10 9 9 8 9 11 11 11 11 10 11 11 11 13 12 11 12 12 12 11 11 11 11 10 10 13 13 11 10 8 9 8 11 10 10 11 8 8 7 7 8 9 9 9 7 9 14 14 15 15 10 7 6 6 5 5 5 5 5 6 5 11 9 6 7 6 11 13 13 10 7 8 9 9 9 9 8
10 13 13 11 9 9 8 8 9 8 6 8 10 11 11 11 10 10 11 11 13 12 10 12 13 11 10 10 10 10 11 11 12 12 12 12 11 11 9 8 9 8 9 7 7 7 7 6 7 8 8 9 7 9 14 15 15 15 10 6 7 6 6 7 6 6 5 5 5 7 13 11 9 9 14 14 14 12 8 8 7 8 10 10 6
6 4 6 8 9 10 8 8 8 8 7 9 10 10 10 10 9 9 10 12 13 12 12 11 9 8 9 8 9 10 11 12 13 11 10 10 7 6 8 9 8 7 7 7 7 7 8 8 7 7 8 8 8 7 9 16 16 16 16 8 7 7 9 8 7 6 6 5 6 6 9 14 16 16 15 16 15 15 10 6 6 8 8 7 3
7 7 7 8 7 8 9 8 6 8 8 9 9 9 9 8 9 9 11 13 11 8 8 7 7 7 7 9 8 10 12 11 11 11 9 7 7 9 8 8 9 7 6 6 7 7 7 7 6 7 7 7 8 9 9 16 17 17 18 15 8 9 8 7 6 7 6 7 6 7 6 11 15 15 15 16 15 14 13 9 8 5 4 7 11
5 7 8 8 8 7 7 6 5 8 8 8 9 9 7 7 7 9 12 9 5 6 6 6 7 8 8 8 9 8 9 10 7 7 8 9 7 7 8 9 7 7 9 9 7 7 7 7 6 6 7 8 7 11 8 14 18 19 18 20 10 10 10 7 7 7 7 7 7 6 5 9 15 16 15 15 15 14 16 6 1 8 13 15 9
9 7 5 9 8 7 7 7 6 6 6 7 8 8 7 6 8 12 6 4 5 5 6 7 6 7 7 9 8 9 9 7 8 9 9 9 7 7 7 7 8 8 9 9 8 7 7 8 7 7 7 8 7 8 14 11 16 19 20 19 20 12 16 9 9 9 9 8 5 6 7 13 15 15 15 15 15 17 13 4 8 10 12 15 6
4 5 7 6 8 6 7 5 5 5 5 6 9 8 7 7 12 3 4 4 5 5 6 6 7 7 7 7 8 8 8 7 9 9 9 9 8 8 8 8 8 9 9 9 8 7 7 8 10 10 8 8 7 7 11 16 13 19 19 20 20 21 18 11 9 8 7 7 6 7 8 14 15 15 16 16 17 15 4 5 9 12 13 5 3
7 7 5 5 9 9 7 6 4 5 4 5 6 10 7 9 4 4 5 6 5 5 6 6 7 7 8 7 6 7 8 7 7 9 9 8 7 7 8 6 7 8 8 9 9 8 9 10 9 10 10 8 8 8 7 12 18 17 19 20 20 20 21 20 12 9 8 7 9 13 15 15 15 15 16 18 11 3 5 6 8 11 6 2 1
6 6 5 6 6 7 8 8 4 4 4 4 4 8 11 6 3 5 4 5 6 6 6 7 6 6 7 5 7 6 6 6 7 8 9 9 10 9 9 7 7 8 8 9 9 8 9 9 10 10 10 9 6 7 8 8 10 13 14 18 19 19 20 22 20 11 14 16 16 16 18 17 16 14 9 2 3 4 3 5 7 6 1 1 1
8 7 8 7 8 8 7 7 7 4 5 4 5 4 2 2 4 5 6 6 6 6 5 4 5 2 1 3 5 6 5 4 5 5 6 7 7 8 8 8 8 9 9 9 9 9 9 9 10 12 10 5 5 6 7 6 7 7 7 7 9 12 18 18 13 11 12 11 12 13 10 13 11 16 14 8 5 3 1 1 1 1 2 2 4
4 6 6 6 7 8 7 6 7 7 5 5 4 3 2 3 3 5 6 6 6 6 7 5 5 4 4 3 3 3 4 3 1 1 5 4 4 6 8 10 11 11 11 11 10 10 11 11 10 7 3 3 6 5 7 8 7 7 7 8 7 5 6 6 8 7 7 7 5 6 10 5 3 2 1 2 0 1 2 3 2 3 3 5 5
7 5 6 9 7 7 7 7 3 2 3 3 2 1 2 2 3 4 5 6 6 5 5 5 5 5 5 4 5 4 4 4 3 1 1 1 5 4 5 3 1 1 4 6 6 7 6 3 4 6 6 6 6 8 8 6 9 11 10 7 7 8 7 7 10 11 5 2 3 6 5 6 6 7 6 6 4 2 2 3 3 3 4 4 3
3 4 4 3 4 4 4 4 3 3 5 4 3 3 1 2 3 4 4 5 5 5 5 5 5 4 4 5 4 5 4 6 6 6 6 5 5 8 7 6 6 4 7 10 8 7 5 5 6 6 6 9 9 6 6 13 16 16 17 16 13 12 12 9 10 16 11 7 7 7 7 7 8 7 7 7 6 5 5 4 5 5 5 4 4
5 6 4 4 4 4 5 5 4 4 5 5 4 2 2 2 0 1 3 4 4 5 3 4 4 4 5 6 4 5 5 4 5 4 4 4 4 5 6 8 9 8 10 10 12 13 13 12 9 6 7 13 14 11 9 11 14 16 17 17 17 17 17 16 16 10 10 10 8 8 9 8 8 8 8 7 6 6 6 6 6 5 4 5 5
Wind_Direction
161 153 151 155 160 162 164 162 148 148 149 147 140 146 146 143 139 140 143 145 139 128 125 132 120 106 92 96 98 91 89 84 73 64 67 63 60 60 62 65 66 67 63 69 76 77 75 74 73 65 66 71 73 71 67 63 54 67 75 58 54 51 31 15 12 35 95 69 59 68 62 55 64 62 61 58 65 66 54 53 38 44 27 22 10
144 143 154 151 160 165 165 165 157 151 159 146 148 154 140 127 125 125 122 123 126 125 129 114 108 123 122 116 107 97 93 92 85 66 73 67 61 62 66 68 70 70 70 75 75 80 83 77 72 73 72 76 83 80 69 60 55 46 39 65 45 63 49 21 9 62 37 108 105 74 62 50 51 55 52 35 41 44 49 50 39 46 30 13 4
163 163 162 166 173 177 169 171 163 151 152 149 147 141 132 118 119 114 113 116 115 119 120 112 107 114 116 121 114 100 71 84 93 87 78 78 65 61 65 69 74 71 72 75 79 77 81 81 76 76 71 83 79 66 62 56 53 53 46 70 62 50 73 35 33 37 114 50 136 95 120 100 356 9 2 33 27 31 35 40 36 41 30 16 7
178 178 173 172 175 182 177 176 167 153 155 156 153 144 133 127 124 119 120 118 117 112 103 101 103 99 98 107 94 101 114 96 86 75 72 76 64 60 55 66 71 75 71 76 81 77 81 84 85 76 71 67 81 79 66 61 52 49 51 47 66 65 33 38 38 35 59 87 44 116 173 110 2 334 352 292 56 62 37 31 24 32 23 7 15
173 170 174 174 178 186 183 174 163 160 166 166 162 155 142 136 131 129 130 130 126 123 118 116 108 103 104 98 100 93 77 87 86 65 65 77 81 61 57 60 72 77 74 77 85 86 83 86 85 82 79 69 75 76 72 69 67 64 61 65 51 97 62 43 27 34 43 33 125 65 6 35 175 258 351 287 1 15 21 39 20 31 7 359 4
173 176 176 175 173 170 178 174 171 168 170 176 162 148 136 131 127 122 118 125 131 131 132 128 128 129 128 125 121 115 111 106 107 120 103 88 90 91 67 62 76 80 77 79 79 83 80 79 81 81 76 71 70 79 81 70 57 58 48 72 64 45 101 64 40 14 40 43 46 67 122 160 294 292 80 318 334 98 1 17 37 26 4 356 354
173 162 161 168 177 175 179 180 177 168 180 170 148 144 136 133 132 131 133 131 136 137 139 133 133 135 130 123 122 125 124 98 101 102 109 103 100 89 87 71 68 82 73 75 77 79 82 78 80 80 79 78 77 77 70 69 67 62 56 63 62 65 66 74 56 341 2 30 26 42 51 46 72 89 355 358 350 321 2 354 357 9 359 356 1
169 174 176 178 178 179 179 176 174 173 174 161 147 146 139 138 134 134 135 140 145 144 147 148 134 130 120 116 117 120 120 129 129 121 108 113 98 92 88 76 68 70 80 74 77 80 85 82 82 81 80 75 77 74 79 78 77 60 63 70 67 59 68 86 77 37 81 340 4 33 27 40 52 64 66 131 249 295 314 334 344 3 353 341 348
170 169 177 179 181 182 173 171 171 164 177 161 155 150 139 136 132 133 138 143 148 149 142 143 130 130 124 124 115 111 120 124 123 117 113 112 100 93 89 87 79 72 75 84 79 83 82 89 85 84 82 79 82 85 80 75 74 75 63 60 65 60 60 78 80 57 60 35 20 6 23 32 23 72 68 57 102 335 294 309 309 332 352 322 339
174 173 172 175 174 171 163 141 155 171 177 157 148 139 138 135 133 134 137 143 147 142 134 134 127 125 126 130 128 130 129 124 121 121 117 116 106 103 99 95 93 87 80 81 85 81 87 86 86 86 89 89 84 87 85 77 73 73 73 78 75 74 57 64 79 71 69 58 69 68 43 353 14 6 22 19 2 79 234 304 310 329 334 296 311
166 165 168 165 162 156 150 160 161 162 173 157 150 145 142 139 139 136 140 134 139 137 134 136 133 131 134 140 139 139 139 135 130 125 127 121 117 115 109 105 99 98 95 83 85 92 88 86 91 91 89 89 89 85 83 89 84 85 83 76 68 75 69 73 70 64 71 64 54 62 83 91 116 104 307 4 104 293 348 304 313 304 281 307 281
159 158 161 155 150 155 155 160 166 169 165 159 159 149 145 145 142 136 137 138 136 137 133 137 136 135 138 145 144 146 145 145 142 142 146 135 132 126 123 110 102 100 98 98 90 94 97 92 94 94 91 93 89 95 93 93 92 90 80 79 78 79 79 78 77 66 56 65 55 51 63 95 89 114 168 132 89 274 241 281 296 302 301 247 288
164 164 161 166 167 166 171 168 165 173 174 167 167 157 149 147 148 143 148 147 141 142 137 139 138 142 147 148 144 144 144 142 143 141 149 142 141 136 136 127 130 114 117 110 113 110 111 106 101 100 98 93 101 95 96 95 95 90 91 86 87 82 87 89 82 81 82 71 57 31 76 51 34 281 98 83 34 147 44 328 275 303 279 298 280
170 167 169 170 169 174 176 173 175 174 174 172 169 160 157 153 154 150 153 151 143 140 142 142 146 147 150 151 149 149 149 149 150 147 151 146 147 144 144 144 140 138 136 128 137 119 101 107 108 102 102 105 101 103 103 104 100 101 99 94 91 105 93 89 95 94 78 90 96 52 26 28 357 354 83 70 47 27 354 331 308 303 269 279 288
171 173 174 172 174 175 177 177 178 179 175 174 171 164 157 157 158 155 151 155 147 146 146 146 148 150 151 151 149 150 152 152 152 152 150 148 150 141 139 140 136 142 135 137 126 114 111 108 108 108 110 108 108 107 107 103 105 100 95 102 100 102 96 92 80 80 66 42 22 60 34 16 359 321 54 34 91 59 180 285 23 338 328 279 301
177 175 174 177 177 176 176 181 181 180 179 175 173 167 163 163 160 159 155 154 151 149 152 150 151 149 148 152 155 152 149 142 141 146 150 148 148 145 142 141 137 131 127 124 122 120 122 116 112 112 113 111 110 113 111 106 102 98 95 92 88 74 97 94 109 91 79 57 89 4 42 337 340 335 41 39 14 352 5 354 46 21 331 320 321
178 179 178 180 180 184 183 181 182 181 181 182 177 172 165 161 160 156 155 151 152 155 152 153 151 149 154 155 153 154 156 159 158 156 150 144 138 139 137 138 130 128 127 124 125 121 124 125 119 119 115 116 112 112 110 112 114 112 113 108 102 100 124 140 118 106 127 113 93 97 164 265 315 322 35 28 7 357 347 335 340 164 185 309 321
177 177 181 183 184 185 184 187 187 186 181 176 174 170 166 163 162 157 158 156 157 155 154 155 153 153 155 157 160 161 159 156 153 149 145 137 135 129 130 132 139 137 129 130 128 129 126 124 120 118 118 114 117 117 124 132 127 117 117 108 121 110 103 99 128 126 132 117 98 40 73 356 294 65 47 31 42 30 26 11 345 329 145 234 255
177 181 183 185 187 189 188 187 183 180 177 174 166 163 161 161 162 160 160 159 153 151 147 147 150 153 159 160 158 154 153 149 144 141 141 142 143 145 142 138 127 129 130 133 134 133 131 126 122 118 113 117 125 145 143 135 132 124 119 113 98 93 98 102 131 122 178 131 122 89 49 347 344 10 31 44 24 30 4 6 353 30 345 215 244
187 189 190 189 189 188 185 180 178 176 173 172 168 163 164 161 156 153 143 142 142 147 150 153 155 150 148 143 146 149 152 151 151 148 148 148 148 144 141 138 144 138 143 144 142 143 140 132 127 124 129 143 150 153 137 126 122 127 130 120 123 105 98 106 87 65 130 126 122 89 316 258 306 62 54 53 35 353 15 356 343 345 309 285 214
195 193 189 186 184 182 178 176 171 164 165 165 168 168 161 154 157 158 154 154 153 155 152 156 152 151 150 154 154 153 154 148 143 145 140 144 144 142 144 142 135 150 153 152 151 149 144 140 139 142 149 158 153 139 130 123 122 125 126 126 120 109 107 113 115 47 61 113 115 108 311 301 238 95 109 72 45 353 354 346 332 43 7 331 353
198 194 185 179 177 173 165 160 157 159 167 169 168 160 162 164 162 156 151 159 157 160 160 156 155 154 157 155 156 153 150 147 145 145 144 147 148 149 147 146 153 162 160 156 153 149 144 143 143 149 154 156 149 133 130 127 127 131 131 124 114 112 114 123 123 131 8 119 126 114 324 305 360 124 118 22 78 7 1 16 336 80 332 302 299
195 186 180 176 173 172 172 171 171 173 171 168 167 169 166 162 160 164 160 166 162 158 155 155 156 158 159 155 154 155 153 153 150 151 151 151 151 150 155 155 159 161 163 157 154 149 147 143 143 149 151 152 145 135 135 129 134 132 128 116 124 129 141 144 141 187 193 160 106 134 263 276 271 7 330 323 13 331 25 61 307 308 315 290 285
186 175 167 168 167 163 164 174 175 175 175 176 171 165 163 164 165 161 166 161 159 159 156 154 154 156 154 153 159 157 155 157 156 157 155 155 153 156 159 157 160 158 156 157 148 147 144 145 145 151 157 151 144 144 140 137 140 133 128 133 137 140 152 164 172 196 201 173 195 202 265 260 294 346 311 325 314 341 309 308 311 300 298 295 289
176 176 170 164 169 176 184 181 180 180 175 170 172 171 167 168 165 165 164 161 156 157 156 157 157 155 159 160 163 164 163 164 160 159 158 156 158 157 161 161 157 158 159 151 148 143 145 149 156 162 158 157 159 151 141 141 136 135 136 143 154 155 166 177 192 199 209 195 208 216 239 246 292 310 310 313 295 309 292 309 300 294 304 300 317
180 176 174 184 185 181 181 184 183 184 178 174 173 170 169 166 169 164 159 160 161 156 158 155 161 162 165 169 169 169 172 168 163 162 162 162 161 161 161 165 162 159 159 159 152 154 158 161 164 164 159 159 161 153 149 146 143 136 140 147 162 174 185 182 194 212 210 213 213 227 247 244 272 272 275 275 277 276 283 284 287 286 285 298 298
187 185 185 176 180 189 188 183 184 182 180 177 173 171 170 167 165 167 163 160 160 160 161 163 168 169 169 174 175 178 173 169 168 165 161 162 165 166 165 167 169 162 161 159 159 157 162 165 169 162 162 161 158 157 152 151 148 149 153 160 171 176 186 192 208 213 222 218 214 220 238 255 255 255 259 258 260 271 264 260 247 253 264 280 284
195 187 185 191 191 184 183 184 180 184 179 176 177 176 174 172 170 167 164 162 164 164 166 170 170 174 178 179 181 177 173 171 165 163 166 167 166 167 170 167 163 167 167 167 166 167 166 167 171 165 164 159 159 161 161 155 156 157 156 169 174 178 192 208 211 216 206 211 223 230 239 246 242 248 245 256 247 257 251 254 249 245 249 260 269
191 198 191 186 187 188 186 185 186 177 181 179 176 175 172 172 168 169 168 173 165 165 170 173 176 180 183 178 174 175 172 165 165 165 167 171 170 169 168 169 173 170 171 170 166 161 162 168 170 169 166 166 168 175 172 169 162 167 168 173 163 158 161 182 221 253 261 255 264 256 254 254 250 256 265 269 254 243 218 231 251 225 240 244 263
199 196 191 192 192 189 188 182 181 186 184 181 179 179 179 175 175 173 172 170 163 173 173 177 182 185 178 175 174 172 173 168 169 174 175 171 170 170 170 172 176 173 169 168 166 170 174 174 169 171 173 171 181 181 181 177 170 164 161 154 145 149 159 183 206 237 269 246 240 245 258 271 280 282 282 284 286 285 284 278 255 219 233 241 244
197 195 198 197 191 187 181 182 189 189 190 186 184 177 171 173 176 176 176 173 170 174 180 180 185 182 175 171 172 178 172 178 179 174 172 171 174 172 173 173 171 172 173 171 173 178 184 181 176 172 175 182 183 186 186 185 185 180 163 163 163 173 175 189 205 213 233 243 249 244 242 261 270 279 280 278 281 283 283 284 288 290 287 274 268
201 198 193 190 189 185 184 190 192 193 189 185 177 173 174 184 178 178 175 165 175 179 182 185 184 175 173 174 178 175 178 183 177 179 175 175 171 173 175 174 173 175 178 172 181 188 183 183 180 179 181 185 188 189 189 190 189 190 173 166 164 172 183 200 207 220 225 226 234 236 244 234 241 250 253 252 273 283 284 284 287 287 284 287 290
196 196 192 190 189 190 192 192 190 190 190 189 173 166 184 181 176 174 152 169 181 182 183 184 181 175 176 177 177 179 184 185 186 178 175 173 175 177 177 176 184 181 168 181 189 182 191 185 182 181 188 191 189 194 193 195 196 197 193 166 176 169 182 200 212 217 223 227 230 236 245 247 239 273 286 304 269 271 287 286 284 285 290 290 289
200 197 195 194 190 191 192 191 189 188 184 168 173 180 175 162 158 156 169 177 179 183 183 185 179 179 177 180 182 184 188 190 182 179 176 179 179 186 183 180 173 172 183 187 185 189 188 191 190 190 190 191 192 201 196 196 198 200 203 186 161 173 176 191 217 222 224 227 226 225 236 259 253 257 267 270 278 265 260 261 260 251 245 253 267
201 197 195 189 186 183 177 176 183 178 167 158 168 169 159 163 168 173 178 175 182 181 185 185 183 181 178 184 187 189 191 187 184 181 179 183 187 181 178 183 181 185 186 189 187 189 197 194 195 189 187 196 204 203 200 200 200 203 206 193 158 164 177 205 226 226 225 225 226 224 224 234 241 249 240 256 249 252 248 248 251 250 241 243 242
196 194 194 184 181 181 182 181 159 153 162 168 173 164 165 176 169 172 173 178 178 183 189 185 186 184 188 190 188 190 190 187 183 179 182 188 187 185 185 184 184 189 194 177 199 195 193 195 194 187 186 206 213 205 205 204 204 205 207 177 166 173 186 204 216 220 220 219 216 216 222 237 241 247 252 266 267 256 242 242 248 250 251 252 247
203 199 199 189 171 160 157 147 154 158 161 176 167 164 165 158 167 175 173 177 180 190 193 190 189 190 193 191 188 188 189 184 181 181 189 191 186 191 193 172 180 189 186 194 198 196 196 192 191 192 193 207 208 210 205 206 206 206 202 164 176 173 191 211 225 218 222 216 216 220 228 235 239 241 250 259 262 264 261 257 257 260 259 260 259
136 117 144 151 155 149 150 148 150 161 165 155 153 159 156 162 170 170 173 181 187 199 193 187 194 195 193 189 189 186 185 183 182 191 193 195 194 193 189 179 185 186 196 203 195 196 200 196 193 198 197 197 205 213 208 206 207 210 195 175 180 186 203 219 227 224 216 227 226 237 234 225 231 235 246 255 255 256 254 253 257 263 268 266 271
166 165 164 162 154 139 128 123 134 151 155 147 150 152 156 168 170 172 176 184 198 199 187 193 200 195 190 188 186 185 186 185 190 196 193 193 194 194 185 177 196 194 204 187 187 196 203 206 207 203 197 198 201 211 212 210 210 212 200 168 181 187 204 223 222 227 222 214 230 235 242 240 234 232 246 248 248 247 245 245 252 263 270 272 273
143 127 129 123 117 105 109 128 153 158 145 149 151 155 163 165 171 168 181 198 202 195 197 199 193 185 186 184 185 186 189 188 196 198 195 199 185 167 177 188 198 195 194 186 192 199 202 211 202 199 207 202 197 210 216 214 213 212 206 174 181 182 212 218 213 215 219 232 221 225 234 243 246 248 249 249 249 250 247 245 249 256 266 278 300
119 117 113 111 110 121 139 150 145 145 150 150 147 151 164 168 164 173 199 206 201 193 190 190 179 179 184 187 187 188 191 199 197 195 190 184 180 188 180 185 194 189 183 191 197 205 208 215 202 210 206 214 202 202 215 214 215 214 212 198 187 204 210 208 207 214 217 219 220 219 205 232 246 248 250 249 248 249 251 253 251 248 247 274 294
99 114 113 104 98 100 104 110 133 143 147 147 148 154 160 153 166 193 211 203 177 178 170 167 177 185 187 187 190 197 196 195 188 171 177 194 195 183 186 187 181 182 194 205 203 204 208 218 214 213 215 218 212 206 204 220 219 220 218 214 199 208 201 193 208 218 219 223 218 208 209 230 241 245 244 245 246 250 253 249 237 271 290 302 309
119 101 93 118 120 129 136 136 134 134 136 148 143 147 149 160 179 212 194 151 163 152 162 171 178 184 189 192 194 191 193 185 186 186 184 194 181 181 184 176 180 188 199 208 208 204 207 221 226 227 225 221 214 220 213 215 226 224 223 221 218 209 209 201 202 218 216 223 208 214 218 230 238 239 242 245 250 251 257 263 279 301 302 296 324
71 105 130 126 118 119 117 115 126 132 136 142 148 145 156 167 210 161 126 140 141 159 155 170 185 191 190 195 195 196 194 188 187 183 188 186 183 187 183 186 186 188 198 210 215 202 209 221 224 232 226 222 216 211 224 220 223 229 228 225 225 222 213 205 205 222 218 216 214 214 216 229 233 237 245 249 246 253 247 272 300 298 294 316 67
134 136 132 128 137 135 126 121 126 135 137 142 145 152 155 194 207 131 161 155 156 152 166 179 191 192 195 198 188 192 193 193 188 178 184 190 187 174 186 198 183 198 201 210 216 196 210 220 225 232 231 221 213 211 219 229 228 228 230 229 228 227 226 221 218 218 216 214 221 224 227 230 235 242 241 245 252 247 273 296 299 291 302 88 342
118 118 121 119 114 120 129 135 134 141 142 146 147 148 170 206 149 157 148 148 147 157 176 196 194 195 199 179 184 198 195 192 185 190 194 191 184 185 194 187 188 204 206 211 216 203 217 222 229 236 236 225 205 205 219 223 233 235 235 234 233 232 232 231 230 225 220 226 230 234 238 239 239 241 243 172 132 214 237 284 296 299 69 262 213
146 147 129 118 127 131 136 144 158 181 166 170 170 179 135 130 154 153 149 146 154 164 177 175 190 188 156 175 194 194 196 193 192 195 197 189 183 186 189 189 195 201 207 212 216 210 216 220 229 234 235 224 214 215 218 218 223 230 237 238 236 237 235 236 238 240 241 239 238 238 239 242 241 242 238 220 180 132 60 6 317 265 251 229 232
127 137 125 128 138 147 154 156 170 183 178 180 179 163 137 90 118 137 139 138 149 167 171 176 165 153 156 157 183 162 168 189 219 212 207 206 201 189 195 201 197 203 200 214 212 215 218 219 231 250 257 235 235 227 223 214 217 216 224 222 226 235 234 231 233 232 231 238 239 245 247 261 296 343 54 41 38 111 161 211 221 229 234 238 236
140 155 155 155 158 152 167 169 143 127 137 125 121 127 161 140 125 129 131 131 147 155 151 156 157 144 163 159 161 155 162 169 185 231 297 216 196 214 228 265 333 153 209 222 218 241 241 235 230 234 220 248 242 235 233 203 214 214 213 208 213 218 219 228 232 232 234 226 215 227 223 236 231 234 244 245 250 276 259 218 234 242 244 243 249
104 116 117 105 111 136 133 107 85 120 131 142 153 181 200 160 142 139 133 135 149 149 153 174 166 166 167 161 172 175 170 173 177 192 214 257 228 198 198 202 246 250 224 225 213 222 210 201 225 230 196 223 242 240 218 218 222 222 224 221 220 221 222 223 229 233 230 223 219 217 219 217 223 219 227 227 232 229 246 260 246 232 223 228 232
136 127 124 115 110 108 112 101 112 111 112 109 89 50 47 31 50 138 140 148 146 155 172 177 165 185 181 180 174 179 186 179 183 179 192 210 263 302 262 236 226 224 235 245 245 245 236 217 200 228 227 232 243 248 240 228 226 227 227 231 233 233 233 231 227 223 234 229 218 217 221 214 216 216 219 218 213 217 229 234 247 236 225 226 240